TimeEST,TemperatureF,Dew PointF,Humidity,Sea Level PressureIn,VisibilityMPH,Wind Direction,Wind SpeedMPH,Gust SpeedMPH,PrecipitationIn,Events,Conditions,WindDirDegrees,DateUTC
12:15 AM,30.2,26.6,86,30.41,10.0,Calm,Calm,-,N/A,,Clear,0,2012-11-17 05:15:00
12:35 AM,30.2,26.6,86,30.41,10.0,WNW,4.6,-,N/A,,Clear,300,2012-11-17 05:35:00
12:55 AM,32.0,28.4,87,30.41,10.0,Calm,Calm,-,N/A,,Clear,0,2012-11-17 05:55:00
1:15 AM,35.6,30.2,81,30.42,10.0,North,3.5,-,N/A,,Clear,360,2012-11-17 06:15:00
1:35 AM,35.6,28.4,75,30.42,10.0,NNE,4.6,-,N/A,,Clear,30,2012-11-17 06:35:00
1:55 AM,35.6,28.4,75,30.43,10.0,North,3.5,-,N/A,,Clear,360,2012-11-17 06:55:00
2:15 AM,37.4,28.4,70,30.43,10.0,North,5.8,-,N/A,,Clear,10,2012-11-17 07:15:00
2:35 AM,37.4,28.4,70,30.44,10.0,North,3.5,-,N/A,,Clear,10,2012-11-17 07:35:00
2:55 AM,35.6,28.4,75,30.45,10.0,Calm,Calm,-,N/A,,Clear,0,2012-11-17 07:55:00
3:15 AM,30.2,26.6,86,30.45,10.0,Calm,Calm,-,N/A,,Clear,0,2012-11-17 08:15:00
3:35 AM,33.8,26.6,75,30.45,10.0,NW,3.5,-,N/A,,Clear,320,2012-11-17 08:35:00
3:55 AM,35.6,28.4,75,30.46,10.0,NW,4.6,-,N/A,,Clear,320,2012-11-17 08:55:00
4:15 AM,35.6,28.4,75,30.47,10.0,NNW,4.6,-,N/A,,Clear,330,2012-11-17 09:15:00
4:35 AM,35.6,26.6,70,30.48,10.0,NW,5.8,-,N/A,,Clear,310,2012-11-17 09:35:00
4:55 AM,35.6,26.6,70,30.49,10.0,NNW,4.6,-,N/A,,Clear,330,2012-11-17 09:55:00
5:15 AM,35.6,26.6,70,30.50,10.0,NNW,5.8,-,N/A,,Clear,340,2012-11-17 10:15:00
5:35 AM,35.6,24.8,65,30.50,10.0,NNW,4.6,-,N/A,,Clear,330,2012-11-17 10:35:00
5:55 AM,35.6,24.8,65,30.51,10.0,NNW,5.8,-,N/A,,Clear,330,2012-11-17 10:55:00
6:15 AM,35.6,24.8,65,30.52,10.0,NNW,4.6,-,N/A,,Clear,340,2012-11-17 11:15:00
6:35 AM,35.6,24.8,65,30.53,10.0,North,5.8,-,N/A,,Clear,360,2012-11-17 11:35:00
6:55 AM,37.4,24.8,60,30.54,10.0,NNE,9.2,-,N/A,,Clear,20,2012-11-17 11:55:00
7:15 AM,37.4,24.8,60,30.55,10.0,North,3.5,-,N/A,,Clear,360,2012-11-17 12:15:00
7:35 AM,37.4,24.8,60,30.56,10.0,NNE,6.9,-,N/A,,Clear,20,2012-11-17 12:35:00
7:55 AM,37.4,24.8,60,30.57,10.0,NNE,10.4,16.1,N/A,,Clear,20,2012-11-17 12:55:00
8:15 AM,37.4,24.8,60,30.57,10.0,North,8.1,18.4,N/A,,Clear,10,2012-11-17 13:15:00
8:35 AM,39.2,24.8,56,30.58,10.0,NNE,9.2,-,N/A,,Clear,30,2012-11-17 13:35:00
8:55 AM,39.2,24.8,56,30.58,10.0,North,8.1,-,N/A,,Clear,360,2012-11-17 13:55:00
9:15 AM,39.2,24.8,56,30.59,10.0,North,5.8,-,N/A,,Clear,360,2012-11-17 14:15:00
9:35 AM,39.2,24.8,56,30.60,10.0,NNE,10.4,-,N/A,,Clear,20,2012-11-17 14:35:00
9:55 AM,39.2,23.0,52,30.60,10.0,North,9.2,-,N/A,,Clear,360,2012-11-17 14:55:00
10:15 AM,39.2,24.8,56,30.60,10.0,NNE,6.9,-,N/A,,Clear,20,2012-11-17 15:15:00
10:35 AM,39.2,28.4,65,30.59,10.0,NNE,10.4,16.1,N/A,,Clear,30,2012-11-17 15:35:00
10:55 AM,39.2,28.4,65,30.59,10.0,NE,9.2,-,N/A,,Clear,50,2012-11-17 15:55:00
11:15 AM,39.2,26.6,61,30.59,10.0,NE,5.8,-,N/A,,Clear,40,2012-11-17 16:15:00
11:35 AM,39.2,26.6,61,30.58,10.0,NE,5.8,-,N/A,,Clear,40,2012-11-17 16:35:00
11:55 AM,39.2,26.6,61,30.58,10.0,North,5.8,-,N/A,,Clear,10,2012-11-17 16:55:00
12:15 PM,39.2,26.6,61,30.57,10.0,NE,4.6,-,N/A,,Clear,40,2012-11-17 17:15:00
12:35 PM,39.2,26.6,61,30.57,10.0,NE,5.8,-,N/A,,Clear,50,2012-11-17 17:35:00
12:55 PM,39.2,26.6,61,30.57,10.0,ENE,5.8,-,N/A,,Clear,60,2012-11-17 17:55:00
1:15 PM,41.0,26.6,57,30.57,10.0,NE,6.9,-,N/A,,Clear,50,2012-11-17 18:15:00
1:35 PM,41.0,26.6,57,30.57,10.0,NNE,6.9,-,N/A,,Clear,30,2012-11-17 18:35:00
1:55 PM,41.0,26.6,57,30.57,10.0,East,5.8,-,N/A,,Clear,80,2012-11-17 18:55:00
2:15 PM,42.8,24.8,49,30.57,10.0,ENE,3.5,-,N/A,,Clear,70,2012-11-17 19:15:00
2:35 PM,42.8,23.0,46,30.57,10.0,ESE,3.5,-,N/A,,Clear,110,2012-11-17 19:35:00
2:55 PM,41.0,26.6,57,30.58,10.0,Calm,Calm,-,N/A,,Clear,0,2012-11-17 19:55:00
3:15 PM,42.8,21.2,42,30.59,10.0,NW,6.9,-,N/A,,Clear,310,2012-11-17 20:15:00
3:35 PM,42.8,19.4,39,30.59,10.0,NW,4.6,-,N/A,,Clear,310,2012-11-17 20:35:00
3:55 PM,41.0,19.4,42,30.59,10.0,NW,3.5,-,N/A,,Clear,310,2012-11-17 20:55:00
4:15 PM,39.2,17.6,42,30.59,10.0,NW,3.5,-,N/A,,Clear,320,2012-11-17 21:15:00
4:35 PM,35.6,21.2,56,30.60,10.0,Calm,Calm,-,N/A,,Clear,0,2012-11-17 21:35:00
4:55 PM,33.8,19.4,56,30.61,10.0,Calm,Calm,-,N/A,,Clear,0,2012-11-17 21:55:00
5:15 PM,30.2,21.2,69,30.62,10.0,Calm,Calm,-,N/A,,Clear,0,2012-11-17 22:15:00
5:35 PM,30.2,19.4,64,30.62,10.0,Calm,Calm,-,N/A,,Clear,0,2012-11-17 22:35:00
5:55 PM,28.4,21.2,74,30.63,10.0,Calm,Calm,-,N/A,,Clear,0,2012-11-17 22:55:00
6:15 PM,28.4,21.2,74,30.63,10.0,Calm,Calm,-,N/A,,Clear,0,2012-11-17 23:15:00
6:35 PM,28.4,21.2,74,30.63,10.0,North,3.5,-,N/A,,Clear,360,2012-11-17 23:35:00
6:55 PM,26.6,21.2,80,30.63,10.0,Calm,Calm,-,N/A,,Clear,0,2012-11-17 23:55:00
7:15 PM,26.6,23.0,86,30.64,10.0,Calm,Calm,-,N/A,,Clear,0,2012-11-18 00:15:00
7:35 PM,26.6,21.2,80,30.64,10.0,Calm,Calm,-,N/A,,Clear,0,2012-11-18 00:35:00
7:55 PM,28.4,21.2,74,30.65,10.0,Calm,Calm,-,N/A,,Clear,0,2012-11-18 00:55:00
8:15 PM,28.4,21.2,74,30.65,10.0,Calm,Calm,-,N/A,,Clear,0,2012-11-18 01:15:00
8:35 PM,26.6,21.2,80,30.65,10.0,Calm,Calm,-,N/A,,Clear,0,2012-11-18 01:35:00
8:55 PM,26.6,21.2,80,30.66,10.0,Calm,Calm,-,N/A,,Clear,0,2012-11-18 01:55:00
9:15 PM,30.2,19.4,64,30.66,10.0,Calm,Calm,-,N/A,,Clear,0,2012-11-18 02:15:00
9:35 PM,30.2,21.2,69,30.65,10.0,Calm,Calm,-,N/A,,Clear,0,2012-11-18 02:35:00
9:55 PM,28.4,19.4,69,30.65,10.0,Calm,Calm,-,N/A,,Clear,0,2012-11-18 02:55:00
10:15 PM,26.6,21.2,80,30.65,10.0,North,3.5,-,N/A,,Clear,360,2012-11-18 03:15:00
10:35 PM,28.4,23.0,80,30.65,10.0,North,3.5,-,N/A,,Clear,360,2012-11-18 03:35:00
10:55 PM,28.4,23.0,80,30.65,10.0,North,3.5,-,N/A,,Clear,360,2012-11-18 03:55:00
11:15 PM,24.8,21.2,86,30.67,10.0,Calm,Calm,-,N/A,,Clear,0,2012-11-18 04:15:00
11:35 PM,26.6,23.0,86,30.67,10.0,Calm,Calm,-,N/A,,Clear,0,2012-11-18 04:35:00
11:55 PM,24.8,21.2,86,30.67,10.0,Calm,Calm,-,N/A,,Clear,0,2012-11-18 04:55:00